Weather in David-Gorodok

Belarus     52°03′27″N   27°12′41″E
temp.,
°C
wind,
m/s
gust,
m/s
humid.,
%
clouds,
%
prec.,
mm/h
press.,
hPa
HPBL,
m
22 may, sun
sun2200:00+10w8167669 0.1 10051223
03:00+10w71573100 0.1 10041457
06:00+9wnw71380100 0.1 10041160
09:00+9wnw71385100 0.5 1004927
12:00+9wnw71190100 0.4 1005966
15:00+9nw61095100 1.1 1007681
18:00+9nw4895100 0.2 1007517
21:00+9nw3698100 0.4 1008266
23 may, mon
mon2300:00+9nw2498100 0.0 1009132
03:00+9nw239695 0.0 100975
06:00+8nnw2496100 0.1 101084
09:00+11nne357394 0.1 1011439
12:00+15nne4546100 0.0 10121386
15:00+15n4541100 0.0 10121692
18:00+15n454673 0.0 10121588
21:00+9n33705 0.0 101342
24 may, tue
tue2400:00+7nne22700 0.0 101414
03:00+6ne12740 0.0 101510
06:00+6e00730 0.0 101510
09:00+13e12520 0.0 1015372
12:00+18se12403 0.0 10151505
15:00+20sse12364 0.0 10141890
18:00+20se12375 0.0 10141978
21:00+13se126741 0.0 101514
25 may, wed
wed2500:00+10ssw22789 0.0 101627
03:00+10s227713 0.0 101733
06:00+9sse258237 0.0 101790
09:00+16s355741 0.0 1017436
12:00+21s354298 0.0 10151835
15:00+22ssw3545100 0.0 10141869
18:00+21ssw2359100 0.0 1013172
21:00+17sse387876 0.0 1012163
26 may, thu
thu2600:00+14s4128996 0.0 1010267
03:00+15wsw41197100 2.0 1010561
06:00+11wnw71394100 0.1 1012690
09:00+13wnw6108095 0.1 1013837
12:00+15wnw696761 0.0 10141213
15:00+19w7135735 0.5 10132175
18:00+17w7147214 0.9 10131509
21:00+14w512795 1.2 1014632